RH
68 69 70 76 78 83 87 76 83 69 70 54 52 53 50 47 48 66 76 85 80 73 72 77 83 81 90 95 93 88 92 99 98 100 100 100 100 99 100 100 100 98 80 69
75 68 75 81 76 77 81 77 78 73 76 51 50 50 49 45 63 76 85 83 76 70 68 70 82 84 91 94 93 99 100 100 100 100 99 100 99 100 98 94 92 76 68 62
96 75 74 76 76 75 72 77 71 84 63 50 55 52 47 65 77 80 86 77 72 69 69 68 81 94 90 93 94 96 97 97 98 98 96 92 87 87 79 74 74 79 82 82
95 79 93 53 54 59 67 61 58 54 49 47 48 47 69 77 78 83 80 72 69 68 70 69 80 92 99 100 97 95 96 95 92 90 91 88 91 87 84 87 92 91 97 100
96 90 72 59 83 83 74 65 60 55 53 65 69 75 77 82 78 79 76 72 69 65 66 71 75 83 87 96 95 92 89 96 95 95 95 94 95 93 98 99 100 99 90 66
98 94 95 55 64 67 64 89 60 71 69 71 79 93 85 79 83 77 74 69 71 69 63 68 73 82 81 80 80 78 77 76 84 96 96 100 100 100 99 100 99 97 98 89
93 96 79 57 59 62 90 75 53 54 54 67 89 84 78 83 87 79 73 69 69 69 60 63 65 66 66 66 68 73 82 98 100 100 99 100 98 98 100 96 93 68 43 39
90 92 90 46 63 70 61 46 48 55 57 62 78 77 78 88 89 83 78 66 68 63 63 61 60 63 63 70 90 100 100 100 100 100 100 100 99 97 86 65 41 40 39 33
81 77 50 42 58 50 43 47 54 68 68 69 74 76 82 89 89 85 80 71 69 68 65 64 66 70 90 99 100 100 100 100 99 99 97 98 72 41 38 37 38 39 31 23
68 55 62 47 42 42 41 46 59 60 62 72 75 76 84 89 91 85 84 82 84 86 82 91 99 100 99 99 100 100 100 100 99 95 68 40 37 35 34 39 39 28 21 19
74 62 49 46 50 56 57 57 58 59 62 66 72 80 86 88 91 87 84 87 90 91 98 98 100 100 100 100 100 99 98 94 85 39 32 30 30 33 40 40 28 21 18 14
75 51 50 50 52 55 55 58 58 58 62 67 73 86 91 88 87 89 87 90 91 92 94 99 99 99 100 98 95 97 97 69 39 33 31 31 32 34 42 30 21 18 15 13
61 58 60 57 58 59 60 62 61 60 64 72 77 91 93 90 84 93 89 92 93 98 98 97 98 99 75 66 89 97 67 44 37 31 28 28 33 42 32 22 19 16 14 18
77 72 67 66 66 66 66 66 64 62 67 75 84 96 98 95 85 99 92 88 92 99 100 98 95 68 67 88 98 97 50 42 33 28 27 29 42 34 22 20 17 16 18 21
75 78 83 74 72 72 70 69 66 65 68 74 90 99 99 98 84 97 97 92 93 96 92 81 71 77 89 96 90 58 52 39 28 25 26 41 35 23 20 17 15 16 18 21
72 64 64 80 75 76 74 72 70 68 70 75 84 93 98 100 92 96 95 89 85 78 68 56 57 79 90 77 58 53 46 30 26 27 42 38 24 21 18 16 16 18 19 22
98 84 78 81 84 83 80 79 74 71 71 75 79 84 90 94 95 93 97 89 67 74 58 53 53 86 86 56 50 50 35 26 27 41 42 25 22 18 16 17 16 17 21 27
99 97 96 92 88 85 78 80 78 72 71 75 77 80 86 88 88 91 94 94 88 99 60 56 71 96 68 51 48 38 28 26 38 44 27 22 19 17 17 15 15 19 25 33
97 94 91 88 84 82 82 84 79 74 75 77 78 89 89 86 90 88 94 97 96 99 69 67 100 97 51 49 40 29 27 36 46 29 23 20 18 17 15 14 18 25 32 38
92 92 92 92 96 93 84 78 76 76 80 85 89 95 90 87 89 93 98 95 96 98 89 94 100 57 49 43 31 28 36 47 32 24 21 19 18 14 13 17 26 35 40 45
98 92 96 91 98 95 98 92 93 94 90 95 96 96 90 88 93 98 97 94 97 96 78 98 70 50 47 35 29 34 47 36 25 22 20 18 14 13 17 27 36 41 45 49
99 94 93 90 88 92 93 97 100 91 93 97 95 93 85 91 96 96 94 90 91 76 87 73 52 49 38 31 34 45 41 26 23 21 20 15 12 17 27 35 40 44 47 48
99 95 91 87 89 90 85 88 92 99 92 82 82 83 85 85 84 85 82 77 68 62 68 55 52 42 34 34 44 45 29 24 22 21 17 12 15 24 32 37 41 43 48 51
99 96 93 89 87 84 83 80 78 81 95 96 89 82 79 77 74 71 68 64 62 62 56 54 46 36 34 41 48 35 25 23 22 19 13 13 21 29 36 39 42 45 48 50
92 95 95 92 90 87 85 83 79 76 75 79 88 92 82 79 73 69 64 64 61 58 57 51 39 37 39 47 42 28 24 23 22 16 13 17 26 34 40 43 44 44 45 47
67 83 98 99 96 92 88 85 82 79 75 75 75 84 91 93 88 74 64 60 60 60 54 44 41 39 46 48 33 25 24 23 19 13 14 21 30 36 41 45 44 44 44 46
42 57 84 98 100 99 96 92 86 83 79 76 74 78 96 97 85 64 61 61 62 59 48 44 42 43 49 42 28 24 25 23 16 13 17 25 33 38 43 45 42 42 43 48
Wind_Speed
1 2 2 4 4 7 8 10 6 3 9 7 7 7 12 23 19 20 19 13 14 13 14 18 19 21 18 12 5 5 11 16 21 20 17 19 19 21 23 24 26 25 26 26
3 4 3 4 7 8 11 10 13 16 21 19 24 21 18 19 14 16 13 10 10 10 14 18 19 16 13 9 7 3 7 13 16 18 19 20 21 23 23 23 25 27 26 24
3 4 4 5 7 11 6 6 11 10 19 13 9 8 12 11 11 11 10 5 6 7 10 15 16 11 8 4 4 6 14 17 17 20 19 21 21 20 21 25 27 25 23 17
1 4 1 5 2 5 11 9 12 13 16 16 16 16 9 7 8 7 4 3 3 4 6 9 9 6 4 5 6 9 13 11 16 17 17 17 17 21 25 23 22 21 18 13
2 2 6 4 2 5 4 3 5 11 12 12 4 1 7 6 5 3 2 2 1 1 2 2 3 3 4 7 9 9 8 9 11 11 14 16 22 22 24 22 20 18 15 12
1 2 3 3 2 1 2 3 1 4 6 4 2 1 3 5 2 1 2 1 2 2 3 3 2 2 3 8 10 14 16 16 16 18 21 25 26 25 22 19 17 15 9 6
2 2 6 6 7 5 1 2 4 7 14 11 4 5 3 5 2 0 1 1 1 4 6 5 6 5 5 9 12 15 17 19 24 26 27 26 23 21 18 15 12 9 7 5
3 3 6 4 1 3 1 11 14 20 15 13 11 7 6 4 4 2 2 3 4 5 6 7 6 6 9 12 15 19 23 26 27 26 23 20 19 18 15 11 8 6 3 2
7 6 6 5 10 11 18 17 17 13 10 8 9 11 9 7 7 4 4 6 6 6 8 8 10 11 7 19 21 24 25 23 21 21 20 18 16 14 11 8 5 2 1 3
1 4 10 19 19 24 18 17 12 10 9 6 7 10 11 9 10 8 9 9 9 10 11 9 10 15 22 23 21 20 20 20 19 18 18 16 13 9 6 4 2 1 2 5
5 9 19 13 10 3 2 7 11 10 7 6 7 12 13 11 12 13 14 14 15 16 16 18 19 21 20 20 18 18 18 17 16 16 14 12 9 6 3 1 1 3 5 7
5 8 6 10 7 8 10 10 11 10 8 6 6 13 14 13 13 16 17 18 19 19 19 20 20 19 20 19 18 16 15 15 14 12 10 8 5 2 1 2 4 6 8 9
9 16 14 15 15 12 11 12 10 8 6 5 6 11 15 16 15 17 19 20 21 21 20 20 19 18 18 17 14 11 10 12 11 9 6 4 2 1 3 4 6 8 10 11
4 9 6 6 8 10 11 9 7 6 4 3 6 11 15 18 18 19 21 20 21 21 19 19 18 18 16 15 12 9 9 9 7 6 3 2 3 3 4 6 7 9 10 12
9 11 10 11 9 9 8 8 7 6 5 5 8 11 15 19 21 20 22 22 21 20 20 20 20 18 17 15 11 9 7 6 6 5 4 4 4 4 6 7 9 10 12 13
23 20 15 13 11 10 11 11 10 8 7 8 10 12 13 16 18 18 22 23 24 24 21 21 21 18 17 14 11 9 8 8 7 6 4 4 5 6 8 10 11 12 13 15
19 18 12 12 12 15 16 13 12 10 9 10 10 11 13 15 17 19 21 22 21 21 19 20 21 18 16 14 11 9 9 8 7 5 5 5 6 8 10 11 13 14 15 16
13 16 16 17 17 15 15 13 11 11 11 11 11 13 14 16 19 21 22 22 23 22 20 21 20 19 17 14 12 10 9 7 6 6 6 7 8 10 11 13 14 15 16 16
9 11 11 12 12 12 11 9 9 9 11 11 12 13 14 15 17 19 20 21 24 25 25 24 21 20 17 14 12 11 9 8 7 6 7 8 10 12 14 15 15 16 17 18
8 7 6 4 5 3 2 4 6 9 10 11 12 14 15 15 16 19 20 22 23 24 26 23 20 20 16 14 12 11 9 8 7 7 8 10 12 14 15 16 17 18 18 18
10 9 7 4 3 2 1 3 5 7 8 10 11 12 13 14 16 19 22 24 24 25 24 22 21 19 17 14 12 10 9 8 8 8 9 11 13 14 15 16 17 18 18 17
11 10 8 7 5 4 3 4 4 5 6 8 9 12 14 16 18 20 22 23 24 26 23 22 20 18 15 13 12 10 9 9 8 9 11 12 13 14 16 17 17 17 16 16
13 11 9 8 6 4 4 5 6 5 7 9 10 12 14 15 19 23 24 24 25 26 23 21 20 18 16 14 12 11 10 9 9 11 11 13 13 14 16 16 16 16 16 16
13 12 9 7 6 5 4 4 5 7 8 10 12 13 14 19 20 20 19 21 22 23 22 21 20 18 16 14 12 11 10 10 10 11 12 13 14 15 16 15 15 16 16 17
11 10 10 8 6 4 4 5 6 7 9 11 13 14 15 16 17 18 21 22 22 23 23 22 20 18 16 14 12 11 10 10 11 11 12 13 14 15 15 15 16 17 16 16
11 10 10 10 10 9 7 7 6 7 9 12 14 15 17 20 20 20 21 22 23 22 23 23 21 18 16 14 13 11 11 10 11 12 13 14 15 15 15 16 16 16 16 15
12 11 10 8 8 11 10 9 9 9 10 12 14 16 20 22 20 21 22 22 23 23 24 22 19 18 16 15 13 12 11 11 12 12 13 14 15 15 16 16 16 15 15 14
Wind_Direction
201 215 173 195 186 186 198 203 196 226 236 255 253 267 285 303 302 310 324 327 328 328 342 342 347 349 350 360 3 249 240 215 205 203 195 192 193 194 192 197 199 191 180 177
333 351 225 239 227 210 217 227 249 262 277 274 277 286 288 290 297 314 325 322 326 338 354 350 351 353 354 8 16 5 194 175 166 173 178 183 188 190 193 188 180 175 174 169
292 328 321 297 223 207 207 209 217 241 251 281 284 272 281 291 309 317 315 316 334 348 3 352 353 4 349 40 94 141 150 151 164 172 177 180 175 173 168 167 168 168 166 162
264 0 357 245 218 191 206 242 223 254 271 276 278 282 288 303 302 310 293 308 332 357 0 9 1 31 59 105 120 145 143 155 164 165 165 160 162 162 156 156 154 155 154 156
95 256 292 288 178 156 171 291 202 228 260 276 243 342 289 262 271 287 290 300 284 317 13 33 357 38 62 106 115 135 149 150 143 162 155 154 154 148 148 150 148 140 133 123
257 280 253 266 21 240 179 294 241 222 283 301 159 315 259 227 253 276 332 255 223 179 175 202 178 96 106 111 128 132 143 145 146 145 146 142 141 141 139 142 141 128 126 130
211 271 290 257 293 176 103 237 295 301 293 285 204 214 234 198 196 176 278 229 197 176 179 184 167 164 157 141 141 137 137 133 135 137 137 135 134 140 136 123 121 144 157 170
159 194 272 239 286 187 219 299 307 317 310 287 256 227 198 193 165 157 141 153 162 174 174 165 156 180 147 144 138 138 135 133 134 134 134 132 128 114 116 133 144 155 156 212
182 213 240 243 254 267 304 301 313 312 317 298 232 203 198 186 163 153 136 151 152 159 155 148 153 161 167 136 136 133 132 129 128 126 123 121 121 122 127 145 150 164 217 255
39 264 245 271 279 279 280 293 302 312 311 287 246 209 199 188 172 156 148 148 155 154 150 148 149 145 137 135 136 132 130 128 127 127 125 123 126 134 142 146 164 222 286 295
259 289 286 291 271 334 296 301 315 321 314 294 242 212 206 194 182 169 158 153 145 143 139 135 136 135 132 134 135 134 132 131 131 131 131 131 135 140 145 152 308 299 298 301
231 250 262 281 300 303 303 298 307 313 309 300 234 209 207 200 190 180 171 161 154 149 147 146 140 141 142 139 139 137 139 141 138 134 134 138 142 156 212 284 303 303 302 308
258 280 282 286 290 286 288 299 298 301 299 286 212 201 207 206 192 187 185 174 165 159 161 158 155 155 146 143 138 136 141 142 140 143 149 161 180 292 305 299 303 314 320 324
354 330 296 300 291 295 291 288 289 295 282 249 209 194 204 210 196 193 188 182 171 171 171 167 162 156 149 150 152 158 158 155 155 162 174 223 265 269 280 297 307 311 315 315
325 340 314 308 305 294 290 283 277 279 263 221 201 208 207 209 205 198 187 184 180 178 177 176 168 163 164 166 169 170 172 172 177 199 227 245 260 279 295 303 310 314 316 318
309 308 302 286 294 301 298 280 270 263 246 217 210 205 208 214 213 203 193 191 188 185 186 181 177 174 176 175 179 188 191 197 208 222 242 260 278 294 302 309 313 316 319 322
314 311 309 290 286 297 301 284 264 255 239 220 213 208 206 207 206 202 196 194 193 186 189 185 181 186 188 188 191 200 204 209 221 238 253 271 288 299 306 311 315 319 320 322
295 291 291 288 288 289 292 278 252 242 229 219 213 207 206 206 207 202 196 191 189 188 188 189 191 192 191 191 195 201 211 223 236 246 262 281 294 303 308 312 316 318 320 321
315 301 291 282 277 282 277 255 238 225 217 222 214 208 205 207 208 204 200 196 192 192 183 190 193 192 193 193 197 204 216 230 243 254 272 288 300 306 310 315 317 319 320 321
344 340 329 304 280 285 259 218 216 217 221 215 207 201 198 198 197 199 201 198 196 193 187 190 190 191 194 197 201 209 222 236 247 265 281 295 302 307 313 317 319 320 321 320
4 9 7 5 356 339 291 244 239 233 213 203 203 201 198 196 196 197 196 194 191 187 189 193 191 193 196 201 208 217 228 240 255 272 288 297 304 310 316 318 320 321 321 320
9 8 9 4 354 333 306 271 250 223 213 202 199 200 203 202 198 195 199 197 187 186 191 194 193 195 201 206 215 224 233 244 261 278 290 301 307 314 318 319 322 322 322 322
12 10 5 353 345 339 316 282 262 247 231 223 221 214 210 207 201 195 193 190 195 193 192 195 196 199 204 211 220 228 237 252 268 283 297 303 310 316 318 321 324 323 323 324
13 12 7 360 354 346 332 315 289 257 240 230 223 223 220 207 199 201 199 198 192 197 196 198 200 204 209 217 224 233 242 257 275 290 299 305 312 315 318 322 323 325 325 322
355 358 354 352 349 344 321 301 289 269 250 236 227 220 211 209 219 207 196 197 200 200 201 202 206 211 215 222 228 236 247 264 280 292 299 307 312 315 319 321 322 325 325 321
330 333 339 343 341 331 319 301 283 266 256 243 232 223 213 205 205 209 209 205 207 205 205 208 211 212 219 225 232 241 254 271 284 293 300 304 310 313 318 320 322 323 322 320
339 328 314 308 313 317 313 300 284 272 262 250 241 231 221 212 209 210 211 217 210 210 210 212 213 216 221 227 235 245 261 277 286 293 300 305 310 312 315 318 319 320 318 319